Home   Weather   Chatham-Kent   Past weeks

Flag for Canada Past Weather in Chatham-Kent, Ontario, Canada — Yesterday and Last 2 Weeks

Now
61 °F

Partly sunny.


Feels Like: 61 °F
Forecast: 49 / 58 °F
Wind: 13 mph from Southeast

Location: Windsor Weather Station

Current Time: Apr 25, 2017 at 8:26:02 pm

Latest Report: Apr 25, 2017 at 8:00 pm


Visibility: 15 mi

Pressure: 29.74 "Hg

Humidity: 77%

Dew Point: 54 °F

Location of Chatham-KentLocation

Past Weather in Chatham-Kent — Graph

°F

Chatham-Kent Temperature Yesterday

Maximum temperature yesterday: 68 °F (at 4:00 pm)
Minimum temperature yesterday: 41 °F (at 5:00 am)
Average temperature yesterday: 54 °F

High & Low Weather Summary for the Past Weeks

 TemperatureHumidityPressure
High81 °F (Apr 15, 3:00 pm)100% (Apr 11, 3:02 am)30.50 "Hg (Apr 11, 3:02 am)
Low34 °F (Apr 23, 5:00 am)30% (Apr 23, 3:00 pm)29.75 "Hg (Apr 25, 6:00 pm)
Average54 °F70%30.09 "Hg
* Reported Apr 10 7:00 pm — Apr 25 7:00 pm, Chatham-Kent, Weather by CustomWeather, © 2017

Note: Actual official high and low records may vary slightly from our data, if they occured in-between our weather recording intervals... More about our weather records

Advertising

Chatham-Kent Weather History for the Previous 24 Hours

Scroll right to see more
 ConditionsComfort  
Time TempWeatherWind HumidityBarometerVisibility
7:00 pm
Tue, Apr 25
64 °FHigh level clouds.15 mph68%29.75 "Hg15 mi
6:00 pm68 °FHigh level clouds.12 mph64%29.75 "Hg15 mi
5:00 pm68 °FPartly sunny.13 mph60%29.76 "Hg15 mi
4:00 pm68 °FPartly sunny.16 mph60%29.77 "Hg15 mi
3:00 pm68 °FScattered clouds.9 mph64%29.79 "Hg15 mi
2:00 pm64 °FScattered clouds.8 mph64%29.81 "Hg15 mi
1:00 pm63 °FPartly sunny.13 mph64%29.85 "Hg15 mi
12:00 pm57 °FBroken clouds.10 mph77%29.87 "Hg15 mi
11:00 am55 °FSprinkles. Partly sunny.15 mph77%29.88 "Hg15 mi
10:00 am54 °FPartly sunny.13 mph82%29.88 "Hg15 mi
9:00 am54 °FPartly sunny.9 mph82%29.88 "Hg15 mi
8:00 am52 °FBroken clouds.9 mph82%29.88 "Hg15 mi
7:00 am50 °FPartly sunny.6 mph82%29.88 "Hg15 mi
6:00 am50 °FOvercast.5 mph82%29.88 "Hg15 mi
5:00 am48 °FPassing clouds.3 mph82%29.88 "Hg15 mi
4:00 am50 °FPassing clouds.9 mph76%29.87 "Hg15 mi
3:00 am48 °FPassing clouds.9 mph82%29.87 "Hg15 mi
2:00 am50 °FPassing clouds.12 mph76%29.89 "Hg15 mi
1:00 am50 °FPassing clouds.13 mph71%29.90 "Hg15 mi
12:00 am50 °FPassing clouds.17 mph67%29.91 "Hg15 mi
11:00 pm
Mon, Apr 24
52 °FPassing clouds.21 mph62%29.92 "Hg15 mi
10:00 pm54 °FPassing clouds.14 mph63%29.93 "Hg15 mi
9:00 pm55 °FPassing clouds.15 mph59%29.93 "Hg15 mi
8:00 pm61 °FHigh level clouds.9 mph48%29.93 "Hg15 mi
Weather by CustomWeather, © 2017

See weather overviewHow to use our weather pages